Tonopah, NV

10:32 PM PST on February 08, 2016 (GMT -0800)
Tonopah

Weather History for KTPH - January, 2013

Change the Weather History Date:

Thursday, January 10, 2013

  Actual Average Record
Temperature  
Mean Temperature 28 °F 32 °F  
Max Temperature 38 °F 44 °F 62 °F (1986)
Min Temperature 17 °F 20 °F -5 °F (1974)
Degree Days  
Heating Degree Days 37 33  
Month to date heating degree days 365 333  
Since 1 July heating degree days 2297 2578  
Cooling Degree Days 0 0  
Month to date cooling degree days 0 0  
Year to date cooling degree days 0 0  
Moisture  
Dew Point 15 °F    
Average Humidity 64    
Maximum Humidity 92    
Minimum Humidity 35    
Precipitation  
Precipitation T in 0.01 in 0.24 in (1995)
Month to date precipitation 0.05 0.14  
Year to date precipitation 0.05 0.14  
Sea Level Pressure  
Sea Level Pressure 29.77 in    
Wind  
Wind Speed 20 mph (NNW)    
Max Wind Speed 41 mph    
Max Gust Speed 55 mph    
Visibility 8 miles    
Events Snow    
T = Trace of Precipitation, MM = Missing Value Source: NWS Daily Summary

Daily Weather History Graph

Daily Weather History Graph

Search for Another Location

Airport or City:

Trip Planner

Search our weather history database for the weather conditions in past years. The results will help you decide how hot, cold, wet, or windy it might be!

Date:

Astronomy

Jan. 10, 2013 Rise Set
Actual Time 7:04 AM PST 4:47 PM PST
Civil Twilight 6:35 AM PST 5:16 PM PST
Nautical Twilight 6:02 AM PST 5:49 PM PST
Astronomical Twilight 5:31 AM PST 6:21 PM PST
Moon 5:48 AM PST (1/10) 4:00 PM PST (1/10)
Length of Visible Light 10h 41m
Length of Day
9h 43m
Waning Crescent, 1% of the Moon is Illuminated
Jan 10
Waning Crescent
Jan 11
New
Jan 18
First Quarter
Jan 26
Full
Feb 3
Last Quarter

Hourly Weather History & Observations

Time (PST) Temp. Windchill Dew Point Humidity Pressure Visibility Wind Dir Wind Speed Gust Speed Precip Events Conditions
12:56 AM 34.0 °F 25.0 °F 24.1 °F 67% 29.67 in 10.0 mi SW 12.7 mph - N/A   Clear
1:56 AM 35.1 °F 25.9 °F 24.1 °F 64% 29.65 in 10.0 mi SSW 13.8 mph - N/A   Clear
2:56 AM 32.0 °F 24.8 °F 23.0 °F 69% 29.62 in 10.0 mi WSW 8.1 mph - N/A   Clear
3:56 AM 34.0 °F 26.6 °F 23.0 °F 64% 29.63 in 10.0 mi SW 9.2 mph - N/A   Clear
4:56 AM 30.9 °F 18.7 °F 18.0 °F 59% 29.67 in 10.0 mi NNW 19.6 mph 27.6 mph N/A   Overcast
5:56 AM 27.0 °F 10.8 °F 17.1 °F 66% 29.68 in 7.0 mi NNW 29.9 mph 48.3 mph 0.00 in Snow Light Snow
6:14 AM 26.6 °F 9.1 °F 19.4 °F 74% 29.69 in 1.8 mi NNW 35.7 mph 46.0 mph 0.00 in Snow Light Snow
6:56 AM 21.9 °F 4.2 °F 19.0 °F 89% 29.76 in 0.8 mi North 28.8 mph 41.4 mph 0.00 in Snow Light Snow
7:12 AM 23.0 °F 7.6 °F 19.4 °F 86% 29.74 in 1.0 mi North 21.9 mph 33.4 mph 0.00 in Snow Light Snow
7:20 AM 23.0 °F 7.6 °F 19.4 °F 86% 29.74 in 1.2 mi NNE 21.9 mph 31.1 mph 0.00 in Snow Light Snow
7:31 AM 23.0 °F 6.9 °F 19.4 °F 86% 29.75 in 2.0 mi NNE 24.2 mph 28.8 mph 0.00 in Snow Light Snow
7:45 AM 24.8 °F 10.3 °F 17.6 °F 74% 29.74 in 5.0 mi North 20.7 mph - 0.00 in Snow Light Snow
7:56 AM 24.1 °F 10.1 °F 15.1 °F 69% 29.77 in 9.0 mi NNW 18.4 mph 28.8 mph 0.00 in   Overcast
8:56 AM 25.0 °F 8.9 °F 12.9 °F 60% 29.80 in 10.0 mi NNW 26.5 mph 33.4 mph N/A   Overcast
9:56 AM 26.1 °F 12.7 °F 12.0 °F 55% 29.81 in 10.0 mi NNW 18.4 mph 29.9 mph N/A   Overcast
10:56 AM 26.1 °F 10.4 °F 10.0 °F 51% 29.80 in 10.0 mi North 26.5 mph 36.8 mph N/A   Overcast
11:56 AM 27.0 °F 11.9 °F 10.9 °F 51% 29.77 in 10.0 mi NNW 25.3 mph 34.5 mph N/A   Mostly Cloudy
12:56 PM 30.0 °F 15.7 °F 10.0 °F 43% 29.76 in 10.0 mi NNW 26.5 mph 36.8 mph N/A   Mostly Cloudy
1:56 PM 28.9 °F 14.0 °F 5.0 °F 36% 29.76 in 10.0 mi NNW 27.6 mph 39.1 mph N/A   Clear
2:56 PM 27.0 °F 11.9 °F 10.9 °F 51% 29.78 in 10.0 mi NW 25.3 mph 36.8 mph N/A   Clear
3:56 PM 25.0 °F 9.5 °F 10.0 °F 53% 29.79 in 10.0 mi NW 24.2 mph 33.4 mph 0.00 in   Clear
4:56 PM 21.9 °F 6.9 °F 10.9 °F 63% 29.82 in 10.0 mi NW 19.6 mph 29.9 mph N/A   Clear
5:56 PM 21.0 °F 4.6 °F 10.0 °F 63% 29.85 in 10.0 mi NW 23.0 mph 29.9 mph N/A   Clear
6:56 PM 19.9 °F 4.8 °F 12.0 °F 71% 29.90 in 10.0 mi NW 18.4 mph - N/A   Partly Cloudy
7:56 PM 19.0 °F 4.5 °F 12.0 °F 74% 29.90 in 10.0 mi NNW 16.1 mph - 0.00 in   Clear
9:56 PM 19.0 °F 6.1 °F 7.0 °F 59% 29.91 in 10.0 mi NNW 12.7 mph - N/A   Clear
10:56 PM 18.0 °F 6.1 °F 8.1 °F 65% 29.92 in 10.0 mi NW 10.4 mph - N/A   Clear
11:56 PM 19.0 °F 6.8 °F 12.0 °F 74% 29.92 in 3.0 mi NW 11.5 mph - 0.00 in Snow Light Snow
11:58 PM 17.6 °F 3.7 °F 12.2 °F 79% 29.83 in 1.8 mi WNW 13.8 mph - 0.00 in Snow Light Snow